Weather in Jaunpils

Latvia     56°43′52″N   23°01′06″E
temp.,
°C
wind,
m/s
gust,
m/s
humid.,
%
clouds,
%
prec.,
mm/h
press.,
hPa
HPBL,
m
25 february, thu
thu2523:00+5w71692100 0.0 1022463
02:00+5w6159396 0.0 1022435
05:00+5w61494100 0.0 1020453
08:00+6wsw61392100 0.0 1021436
11:00+8wsw61486100 0.0 1020608
14:00+11wsw71574100 0.0 1020730
17:00+9wsw71578100 0.0 1018576
20:00+7wsw7159080 0.0 1017438
26 february, fri
fri2623:00+6wsw7159290 0.0 1015537
02:00+7wsw6149095 0.0 1014785
05:00+5w7157997 0.0 1013818
08:00+3w8168265 0.0 1014669
11:00+5w8147938 0.0 10131064
14:00+6w7127869 0.0 10131060
17:00+6w6127890 0.0 10111051
20:00+3w5128773 0.0 1012515
27 february, sat
sat2723:00+3wnw512890 0.0 1012429
02:00+2nw6148641 0.0 1015654
05:00+1nw715872 0.0 1015582
08:00+1nnw613851 0.0 1018665
11:00+3nnw6107319 0.0 1020941
14:00+1n697760 0.0 1023970
17:00+2nnw5874100 0.0 1025955
20:00−1nw489093 0.0 1026264
28 february, sun
sun2823:00−1nw48910 0.0 1028262
02:00−1nw48890 0.0 1029262
05:00−1wnw379054 0.0 1028262
08:000wnw389077 0.0 1029269
11:00+4wnw597377 0.0 1028382
14:00+7wnw6117158 0.0 10281002
17:00+5nw5117567 0.0 1027568
20:00+3wnw5118283 0.0 1028426
1 march, mon
mon123:00+2wnw4118960 0.0 1029302
02:00+2wnw5109030 0.0 1029255
05:00+1wnw410900 0.0 1029227
08:00+1wnw48910 0.0 1030158
11:00+6wnw487117 0.0 1030386
14:00+8w486658 0.0 1029552
17:00+7wsw5117286 0.0 1028492
20:00+3w6138576 0.0 1028445